WA6MLF Weather Reports


Display with metric or nautical units.
time (UTC)temp
F
wind
direction
speed
MPH
gust
MPH
rain 1hr
in
rain 24hr
in
rain mn
in
humidity
%
barometer
mb
20260503020056 74 346 1.0 4.0 0.00 0.00 0.00 30 1008.3
20260503014605 74 346 2.0 4.0 0.00 0.00 0.00 29 1008.3
20260503013051 75 349 1.0 6.0 0.00 0.00 0.00 27 1008.5
20260503011551 76 5 2.0 5.0 0.00 0.00 0.00 26 1008.7
20260503010051 76 360 2.0 4.0 0.00 0.00 0.00 26 1008.6
20260503004549 77 355 3.0 8.0 0.00 0.00 0.00 24 1008.6
20260503003055 78 355 3.0 9.0 0.00 0.00 0.00 23 1008.7
20260503001606 79 355 1.0 6.0 0.00 0.00 0.00 18 1008.7
20260503000049 79 5 1.0 4.0 0.00 0.00 0.00 15 1008.8
20260502234549 79 348 2.0 5.0 0.00 0.00 0.00 18 1008.8
20260502233044 79 360 2.0 6.0 0.00 0.00 0.00 16 1009.0
20260502231543 81 347 2.0 7.0 0.00 0.00 0.00 15 1009.0
20260502230042 83 254 2.0 6.0 0.00 0.00 0.00 20 1009.2
20260502224539 82 88 0.0 6.0 0.00 0.00 0.00 17 1009.4
20260502223038 82 66 1.0 4.0 0.00 0.00 0.00 17 1009.6
20260502221542 82 101 1.0 4.0 0.00 0.00 0.00 16 1009.8
20260502220036 82 128 2.0 4.0 0.00 0.00 0.00 18 1009.9
20260502214530 80 74 3.0 8.0 0.00 0.00 0.00 19 1010.1
20260502213028 80 355 2.0 9.0 0.00 0.00 0.00 24 1010.4
20260502211525 79 5 2.0 5.0 0.00 0.00 0.00 25 1010.6
20260502210022 78 281 1.0 10.0 0.00 0.00 0.00 26 1010.8
20260502204521 79 45 2.0 5.0 0.00 0.00 0.00 29 1011.0
20260502203024 79 355 2.0 8.0 0.00 0.00 0.00 25 1011.2
20260502201521 78 44 2.0 4.0 0.00 0.00 0.00 24 1011.5
20260502200015 77 360 2.0 6.0 0.00 0.00 0.00 27 1011.6
20260502194512 78 57 1.0 8.0 0.00 0.00 0.00 27 1011.9
20260502193009 77 126 1.0 7.0 0.00 0.00 0.00 29 1012.2
20260502191506 75 80 0.0 6.0 0.00 0.00 0.00 31 1012.4
20260502190004 74 73 0.0 7.0 0.00 0.00 0.00 31 1012.6
20260502184502 74 57 1.0 7.0 0.00 0.00 0.00 31 1012.8
20260502183105 74 204 1.0 6.0 0.00 0.00 0.00 33 1013.0
20260502181608 72 83 2.0 6.0 0.00 0.00 0.00 31 1013.2
20260502163040 64 145 1.0 5.0 0.00 0.00 0.00 41 1014.3
20260502161535 61 149 1.0 4.0 0.00 0.00 0.00 46 1014.4
20260502151515 54 30 1.0 3.0 0.00 0.00 0.00 53 1014.2
20260502123001 45 31 0.0 0.0 0.00 0.00 0.00 77 1013.5
20260502121600 46 32 0.0 0.0 0.00 0.00 0.00 75 1013.4
20260502120157 46 32 0.0 0.0 0.00 0.00 0.00 72 1013.2
20260502114559 47 32 0.0 2.0 0.00 0.00 0.00 69 1013.3
20260502113056 48 32 0.0 0.0 0.00 0.00 0.00 65 1013.3
20260502111556 49 32 0.0 2.0 0.00 0.00 0.00 62 1013.3
20260502110100 50 31 0.0 2.0 0.00 0.00 0.00 58 1013.2
20260502104556 50 31 1.0 3.0 0.00 0.00 0.00 58 1013.3
20260502103100 51 31 0.0 2.0 0.00 0.00 0.00 57 1013.4
20260502101620 51 31 0.0 1.0 0.00 0.00 0.00 56 1013.3
20260502100116 52 31 0.0 1.0 0.00 0.00 0.00 55 1013.2
20260502071535 49 24 0.0 1.0 0.00 0.00 0.00 64 1013.7
20260502070038 50 24 0.0 1.0 0.00 0.00 0.00 61 1013.6
20260502064526 52 24 0.0 0.0 0.00 0.00 0.00 59 1013.7
20260502063025 53 24 0.0 0.0 0.00 0.00 0.00 55 1013.6
20260502061517 55 24 0.0 0.0 0.00 0.00 0.00 53 1013.6
20260502060013 57 24 0.0 1.0 0.00 0.00 0.00 48 1013.5
20260502054512 58 24 0.0 2.0 0.00 0.00 0.00 47 1013.5
20260502053011 59 24 2.0 3.0 0.00 0.00 0.00 44 1013.5
20260502051522 60 24 1.0 3.0 0.00 0.00 0.00 43 1013.5
20260502050010 61 24 0.0 2.0 0.00 0.00 0.00 43 1013.5
20260502044510 61 24 1.0 4.0 0.00 0.00 0.00 41 1013.5
20260502043014 62 9 0.0 2.0 0.00 0.00 0.00 41 1013.4
20260502041509 63 9 0.0 2.0 0.00 0.00 0.00 40 1013.5
20260502040008 64 9 0.0 3.0 0.00 0.00 0.00 37 1013.4
20260502034508 65 9 0.0 2.0 0.00 0.00 0.00 36 1013.4
20260502033006 65 9 0.0 1.0 0.00 0.00 0.00 35 1013.3
20260502031506 67 9 0.0 2.0 0.00 0.00 0.00 34 1013.1
20260502030006 68 9 0.0 4.0 0.00 0.00 0.00 32 1013.1
20260502024519 69 9 1.0 5.0 0.00 0.00 0.00 28 1013.0
20260502023005 71 15 1.0 3.0 0.00 0.00 0.00 24 1013.0
20260502021505 72 15 2.0 5.0 0.00 0.00 0.00 21 1013.0